Wind_Speed
4 5 7 5 4 3 2 2 2 1 2 3 5 10 11 13 14 17 14 12 15 15 13 10 7 6 8 10 11 10 8 8 8 8 9 10 11 11
7 4 5 4 4 5 5 1 5 4 1 2 5 9 7 7 11 12 14 12 8 10 12 13 11 9 7 10 11 10 8 5 8 8 7 8 11 11
8 7 7 6 6 4 2 3 1 2 4 2 2 6 6 10 10 10 10 11 10 12 12 10 9 9 10 11 13 10 5 1 6 9 6 6 7 9
9 8 8 6 6 6 4 3 2 1 2 3 4 4 4 10 11 11 13 13 9 13 12 11 10 11 7 12 11 10 7 5 8 10 7 4 3 5
11 13 13 10 9 7 5 4 2 1 1 2 3 3 5 11 11 12 13 11 15 14 14 17 18 16 14 16 16 13 11 8 6 7 7 7 5 2
10 9 9 11 12 10 8 7 5 5 4 3 3 3 4 6 9 12 12 9 16 15 18 17 21 24 23 19 17 15 11 7 6 3 4 4 5 5
12 10 9 7 10 9 9 8 7 5 3 2 2 2 2 5 8 8 8 6 8 19 15 20 23 27 27 26 24 23 18 16 13 7 3 3 1 1
13 11 10 8 7 7 8 7 6 5 4 4 2 1 1 3 5 7 8 8 4 15 7 18 19 24 30 27 22 22 23 19 18 21 21 21 16 14
13 12 10 7 6 7 9 6 4 3 3 3 3 3 3 1 1 3 4 5 7 13 5 8 14 21 24 24 20 19 27 27 24 26 27 29 27 21
10 11 9 8 7 9 9 7 4 3 4 4 5 6 7 7 6 2 1 3 5 10 8 4 13 11 17 23 20 19 22 23 23 23 24 24 22 22
5 4 5 5 7 10 10 8 5 4 3 6 8 9 8 7 6 4 1 2 2 4 12 4 12 6 10 19 22 20 25 26 27 26 24 25 22 18
7 4 6 5 6 7 8 9 13 12 13 14 13 13 11 8 6 4 3 4 3 2 13 3 8 8 3 9 17 20 19 23 25 27 28 28 25 21
13 14 11 9 7 5 6 9 13 13 12 14 13 12 11 10 11 10 9 9 11 11 10 1 10 6 3 3 6 21 19 23 25 26 26 25 26 27
13 10 9 7 6 5 6 10 11 11 11 10 10 11 11 13 14 13 13 13 14 14 10 8 4 8 3 3 5 16 12 19 30 32 29 26 25 25
10 8 7 7 7 7 6 6 6 8 8 9 9 9 10 10 9 10 11 11 12 12 13 13 10 10 12 10 5 19 16 9 28 29 27 27 26 26
8 9 9 9 8 8 8 8 7 7 8 10 12 12 11 9 9 7 8 8 10 14 15 13 11 11 12 15 17 19 19 16 26 26 24 23 24 26
10 12 12 11 10 10 9 8 7 8 10 12 12 12 11 10 11 9 10 11 14 14 17 17 11 11 13 12 14 19 20 22 24 26 27 27 24 25
13 12 10 9 10 11 11 11 11 11 12 11 11 10 12 12 13 13 13 14 16 16 17 18 17 8 6 9 16 20 20 22 24 23 25 23 24 25
11 12 14 13 14 13 13 11 13 12 10 9 10 10 10 11 11 12 13 13 14 14 16 16 18 18 7 3 5 17 19 22 23 23 24 20 20 23
7 13 15 15 16 15 14 13 13 12 9 8 8 9 8 9 11 11 11 12 12 11 13 15 16 15 9 4 3 10 15 17 19 21 22 23 20 18
9 17 17 18 18 15 13 12 11 10 7 7 8 7 7 7 10 10 11 11 10 11 13 14 13 11 11 4 7 11 18 16 16 17 17 19 20 17
16 19 18 16 14 14 13 14 13 11 7 6 6 6 6 6 7 9 9 9 9 10 10 11 11 11 13 11 10 13 19 21 20 15 12 11 11 9
17 16 14 13 12 11 12 14 13 11 8 6 6 6 5 5 6 6 7 7 8 8 8 7 8 8 9 9 8 12 14 20 25 29 27 21 22 21
Wind_Direction
213 229 215 218 233 231 292 294 146 21 306 352 351 10 4 10 44 50 31 59 37 24 29 19 13 348 332 322 316 309 312 333 322 294 275 260 248 246
218 214 205 214 215 223 220 247 258 203 235 259 37 7 11 31 42 41 47 50 35 13 21 25 19 14 348 325 311 294 273 306 340 333 298 279 256 247
240 245 224 217 225 209 197 226 201 187 234 340 357 30 36 38 34 29 30 27 14 5 3 354 348 343 345 328 307 271 217 274 344 351 332 306 268 254
239 243 250 249 224 225 238 256 289 333 334 335 326 352 315 14 3 5 11 9 27 30 28 41 34 33 19 36 64 100 103 51 12 2 360 344 274 243
255 259 255 253 252 252 257 255 264 297 7 349 335 333 327 356 355 359 15 59 47 59 60 46 47 42 44 55 68 79 78 65 32 44 46 34 23 355
246 262 267 245 253 251 243 243 244 277 283 289 300 317 329 354 356 6 25 59 54 53 52 51 58 60 62 70 69 68 58 55 33 65 124 84 58 44
231 244 252 251 255 259 260 253 261 259 244 240 267 291 326 358 14 18 33 47 59 30 46 54 63 61 58 61 55 56 59 52 43 32 23 275 269 23
221 225 236 246 240 244 237 235 248 266 273 261 232 219 338 39 47 16 15 28 22 21 48 46 62 64 56 55 57 57 53 50 57 59 65 68 71 77
224 218 219 225 233 230 240 236 224 234 246 238 260 283 294 250 304 336 4 80 94 26 41 40 55 67 55 57 55 61 56 57 61 63 68 70 63 67
219 209 222 223 213 200 199 190 188 237 260 263 263 255 248 244 252 264 1 80 169 21 26 65 26 81 66 56 53 55 50 50 51 58 60 64 67 69
174 192 213 211 189 187 194 189 171 138 125 146 153 144 147 151 162 187 147 146 134 39 29 66 13 35 73 51 46 44 44 48 50 48 49 55 61 64
159 194 181 191 183 185 197 179 155 141 137 134 123 122 121 118 121 111 91 113 123 61 17 66 22 18 110 41 31 34 41 43 44 42 39 35 35 32
168 167 167 162 159 162 174 171 162 152 141 136 125 111 103 99 88 86 88 81 97 77 28 36 12 12 31 6 50 30 26 30 29 32 35 35 31 28
158 161 159 162 144 129 140 148 158 158 157 141 133 111 102 99 96 92 85 83 81 80 59 54 54 35 12 70 40 15 41 22 17 18 21 28 30 25
159 162 155 156 156 151 138 144 174 179 173 159 131 116 109 115 125 114 99 93 90 75 59 54 61 65 72 60 50 21 18 11 10 16 19 20 24 21
162 163 157 154 152 147 150 156 160 159 157 137 125 122 121 122 114 117 152 119 84 60 57 64 68 78 83 71 52 36 25 13 7 17 17 26 24 22
160 157 156 154 146 139 133 128 129 138 131 125 130 125 113 104 90 88 83 83 79 54 44 49 70 81 69 66 43 33 23 19 13 11 13 12 21 19
193 191 185 182 162 150 142 135 135 133 126 127 125 120 111 102 99 94 87 81 75 58 47 42 50 73 88 66 35 24 24 16 15 17 18 3 4 16
208 200 181 171 163 149 140 141 136 133 129 127 126 118 116 109 103 96 92 91 81 67 57 48 44 47 64 8 28 15 16 16 13 18 17 14 353 8
218 186 176 173 168 159 158 153 149 146 140 128 122 123 126 120 111 100 94 95 94 77 59 47 44 38 35 347 319 7 20 8 4 0 360 2 356 359
206 175 167 161 161 163 169 164 158 150 144 134 126 127 125 120 106 100 95 91 85 67 60 50 46 41 42 46 6 353 7 10 8 359 348 347 345 340
171 168 167 164 160 178 183 176 164 157 155 144 133 130 130 121 116 116 114 99 79 66 69 62 50 42 35 34 10 349 353 4 7 1 357 351 333 319
170 172 173 170 177 182 183 179 175 168 160 154 142 143 142 126 123 121 111 95 78 64 54 42 33 34 32 19 347 340 343 354 356 355 355 356 342 335
Height
859 859 859 860 859 859 858 857 856 860 857 852 851 850 848 847 846 845 843 841 840 840 835 832 832 833 832 831 830 828 827 826 825 824 824 824 824 825
860 859 859 859 859 858 858 857 856 855 858 853 852 851 849 848 847 846 844 843 842 841 837 834 834 833 831 829 826 824 824 825 824 823 822 822 821 821
858 858 858 858 857 857 856 856 855 854 856 853 852 851 850 849 848 847 845 844 842 840 837 835 834 832 830 826 822 819 820 822 823 822 821 820 819 820
857 856 856 856 856 855 855 855 854 853 854 852 853 852 851 850 848 847 844 843 842 840 838 837 834 832 829 824 819 819 821 823 823 821 820 819 818 818
854 854 854 854 854 854 853 852 852 852 851 851 852 852 851 850 848 846 845 843 842 841 840 839 837 833 829 825 823 823 823 822 822 821 820 819 819 818
852 853 853 853 853 853 853 853 852 852 851 851 850 850 851 850 848 846 845 843 843 843 843 841 839 835 831 827 827 824 823 822 821 820 819 819 819 818
849 850 850 851 851 852 851 851 851 851 851 850 850 850 851 850 848 847 844 844 845 845 844 843 840 837 835 832 830 827 825 824 822 820 819 818 817 819
848 848 848 849 849 849 850 850 850 849 849 849 849 849 849 848 847 846 846 846 847 847 846 846 844 842 839 836 835 832 828 826 825 822 819 818 818 818
844 846 847 847 848 848 848 848 848 847 846 847 849 848 848 847 847 847 846 846 847 846 846 846 846 845 844 841 838 835 831 829 828 826 824 822 821 818
842 844 846 846 846 847 848 848 847 846 845 845 845 845 846 846 847 847 846 846 847 847 845 845 846 848 847 844 840 836 833 833 832 830 828 826 824 823
840 843 845 845 845 846 847 847 847 846 845 844 843 844 844 844 846 847 847 846 846 846 845 846 847 845 847 844 842 840 837 834 833 832 829 827 826 825
837 841 844 844 845 846 846 846 847 848 847 847 848 846 846 846 846 846 847 846 847 848 848 847 845 844 845 845 844 841 838 836 834 832 831 830 825 823
835 839 842 844 844 845 845 846 847 849 850 849 849 850 849 849 847 848 847 848 846 848 849 849 849 846 843 844 846 845 843 840 836 832 829 827 827 826
841 843 844 844 844 845 846 846 847 848 851 852 851 851 851 851 850 849 851 850 849 850 850 849 849 847 845 843 844 845 842 840 840 837 833 828 826 826
841 843 843 844 844 846 847 847 849 848 848 849 851 853 852 852 852 851 852 854 851 851 849 849 849 848 846 847 848 845 843 842 839 835 833 833 827 824
841 842 843 845 846 846 848 848 849 850 849 849 850 851 852 853 853 853 851 852 852 853 852 850 849 849 849 848 848 848 848 846 841 836 834 830 829 827
841 842 842 843 845 847 849 851 852 852 850 850 851 852 854 854 854 854 854 854 855 854 851 850 852 850 847 849 850 850 847 845 844 839 832 830 828 825
840 841 842 845 845 847 850 850 850 852 853 854 854 855 854 855 856 856 856 855 856 856 855 853 849 850 852 851 851 851 848 845 842 840 836 831 828 827
837 839 838 842 848 849 851 854 854 856 857 856 854 855 857 856 857 856 855 855 857 858 856 855 853 850 851 854 853 852 848 845 841 839 836 835 831 825
839 837 841 842 847 849 852 853 855 855 857 858 857 857 859 857 856 858 856 854 857 858 855 854 853 852 852 855 853 852 850 847 843 839 836 832 830 826
837 838 841 842 846 850 854 853 853 857 860 856 857 859 861 860 858 858 858 859 858 857 855 855 856 857 855 854 853 848 848 847 843 838 837 832 829 821
837 840 841 843 843 851 853 852 852 854 858 858 858 859 861 859 859 859 858 857 858 857 857 857 857 856 855 855 855 851 845 842 842 839 836 834 830 826
835 839 843 844 848 849 849 850 853 854 854 857 857 859 861 861 862 862 860 858 856 856 856 856 856 856 856 855 855 850 847 844 839 832 829 830 827 823